Location: Deer Pines Estates
(40.9114°N, 81.4920°W)
Time: 05:41:29
(UTC+00:00)

Daily predictions for brighter satellites

Satellite Brightness Start Highest point End
(mag) Time Altitude Azimuth Time Altitude Azimuth Time Altitude Azimuth
FREGAT/IRIS 2.8 01:13:05 10° S 01:15:43 60° W 01:18:22 10° NNW
STARLINK-1174 4.2 01:12:22 10° WNW 01:16:25 53° SW 01:20:26 10° SSE
STARLINK-1231 4.4 01:13:35 10° SSW 01:17:15 31° SE 01:20:56 10° ENE
STARLINK-1228 3.3 01:15:59 10° SW 01:19:18 75° NW 01:22:38 10° NE
ARGOS 3.5 01:14:06 10° S 01:19:26 71° WSW 01:24:51 10° NNW
Cosmos 1666 2.7 01:15:46 10° N 01:19:40 89° E 01:23:29 10° S
CZ-2C R/B 2.9 01:14:11 10° NNE 01:19:42 56° E 01:25:12 10° S
STARLINK-1234 3.1 01:17:32 10° SW 01:20:38 76° NW 01:23:46 10° NE
SL-8 R/B 4.1 01:15:55 10° WSW 01:20:41 68° NNW 01:25:30 10° ENE
Cosmos 1536 2.9 01:16:41 10° N 01:20:45 89° ENE 01:24:49 10° S
SL-08 RB Rocket 3.8 01:16:10 10° SSE 01:20:48 89° W 01:25:25 10° NNW
STARLINK-1149 4.3 01:17:22 10° WNW 01:21:22 48° SW 01:25:20 10° SSE
STARLINK-1212 2.7 01:18:55 10° SW 01:22:00 77° SE 01:25:06 10° NE
DNEPR-1 R/B 4.2 01:15:48 10° NNW 01:22:09 79° NE 01:27:12 10° SE
STARLINK-1232 4.2 01:18:27 10° SSW 01:22:13 34° SE 01:25:58 10° ENE
STARLINK-1105 2.7 01:19:23 10° SW 01:22:29 78° SE 01:25:35 10° NE
STARLINK-1209 3.3 01:19:48 10° WSW 01:22:55 67° NW 01:26:02 10° NE
STARLINK-1247 2.8 01:20:18 10° SW 01:23:23 80° SE 01:26:31 10° NE
Cosmos 44 Rocket 3.7 01:18:52 10° NNW 01:23:38 51° NE 01:28:28 10° SE
STARLINK-1169 4.4 01:19:42 10° NW 01:23:41 43° NNE 01:27:38 10° ESE
STARLINK-1227 2.8 01:20:45 10° SW 01:23:51 80° SE 01:26:57 10° NE
STARLINK-1226 2.8 01:21:36 10° SW 01:24:42 82° SE 01:27:49 10° NE
STARLINK-1215 2.8 01:22:32 10° SW 01:25:38 84° SE 01:28:46 10° NE
STARLINK-1180 4.5 01:22:25 10° WNW 01:26:21 43° SW 01:30:16 10° SSE
STARLINK-1208 4.1 01:23:18 10° SSW 01:27:08 38° SE 01:30:59 10° ENE
STARLINK-1217 2.8 01:24:18 10° SW 01:27:24 88° SSE 01:30:32 10° NE
STARLINK-1229 2.8 01:25:14 10° SW 01:28:19 89° S 01:31:26 10° NE
STARLINK-1178 4.3 01:24:39 10° NW 01:28:40 47° NNE 01:32:40 10° ESE
STARLINK-1270 2.8 01:26:05 10° SW 01:29:11 89° NW 01:32:19 10° NE
STARLINK-1189 2.9 01:27:56 10° SW 01:31:02 85° NW 01:34:09 10° NE
STARLINK-1188 2.9 01:28:48 10° SW 01:31:54 83° NW 01:35:02 10° NE
STARLINK-1271 4.0 01:28:13 10° SSW 01:32:07 42° SE 01:36:02 10° ENE
STARLINK-1235 3.4 01:29:33 10° WSW 01:32:36 61° NW 01:35:40 10° NE
STARLINK-1187 3.2 01:29:57 10° WSW 01:33:01 70° NW 01:36:06 10° NE
SJ-6B 3.3 01:29:44 10° S 01:33:27 57° W 01:37:08 10° NNW
STARLINK-1120 4.2 01:29:37 10° NW 01:33:40 51° NNE 01:37:37 10° ESE
STARLINK-1191 3.0 01:31:17 10° SW 01:34:23 79° NW 01:37:29 10° NE
Cosmos 2278 Rocket 3.4 01:30:35 10° SSE 01:34:40 21° E 01:38:46 10° NE
STARLINK-1221 3.0 01:32:10 10° SW 01:35:15 77° NW 01:38:21 10° NE
Lacrosse 5 4.2 01:32:23 10° NNW 01:35:22 15° NNE 01:38:21 10° NE
STARLINK-1222 3.0 01:33:04 10° SW 01:36:09 75° NW 01:39:15 10° NE
Cosmos 2084 Rocket 3.6 01:32:46 10° SW 01:37:01 82° NW 01:41:22 10° NE
STARLINK-1214 3.1 01:33:58 10° WSW 01:37:03 74° NW 01:40:09 10° NE
STARLINK-1154 3.8 01:33:07 10° SSW 01:37:04 46° SE 01:41:03 10° ENE
USA 186 3.7 01:35:26 10° SSW 01:37:17 20° W 01:39:14 10° NW
Abrixas rocket 3.2 01:34:34 10° W 01:37:23 43° NNW 01:40:14 10° NE
ASTEX 1 3.4 01:33:01 10° S 01:37:53 88° E 01:42:49 10° N
STARLINK-1131 4.1 01:34:34 10° NW 01:38:39 55° NE 01:42:24 12° ESE
Cosmos 1862 Rocket 4.5 01:37:16 10° SSW 01:41:35 52° W 01:45:54 10° N
Cosmos 1733 Rocket 4.0 01:37:30 10° NNW 01:41:44 49° W 01:45:55 10° SSW
STARLINK-1197 3.7 01:38:01 10° SSW 01:42:01 51° SE 01:46:03 10° ENE
Meteor 1-18 Rocket 4.5 01:36:47 10° SSE 01:42:05 48° E 01:47:28 10° NNE
CREW DRAGON DEMO-1 DEB 4.4 01:39:32 10° NW 01:42:17 28° NNE 01:45:02 10° E
STARLINK-1190 3.9 01:39:30 10° NW 01:43:36 60° NE 01:47:09 13° ESE
Cosmos 1844 Rocket 3.2 01:38:39 10° SSW 01:44:16 67° WNW 01:49:56 10° NNE
STARLINK-1157 3.0 01:41:10 10° NW 01:44:31 84° SW 01:47:06 16° SE
STARLINK-1198 3.6 01:42:55 10° SW 01:46:58 57° SE 01:51:02 10° ENE
Okean 1-7 3.2 01:43:26 10° S 01:47:35 52° E 01:51:45 10° NNE
STARLINK-1129 3.8 01:44:31 10° NW 01:48:37 65° NE 01:51:58 15° ESE
Hubble Space Telescope 2.7 01:48:08 10° SSW 01:50:20 14° S 01:51:32 13° SSE
STARLINK-1087 3.3 01:49:01 10° NNW 01:50:50 27° NNE 01:51:51 17° E
Meteor 1-4 Rocket 3.5 01:49:27 15° SE 01:51:30 27° E 01:54:28 10° NE
STARLINK-1199 3.6 01:47:53 10° SW 01:51:58 63° SE 01:56:04 10° ENE
STARLINK-1134 3.7 01:49:30 10° NW 01:53:39 71° NE 01:56:46 17° ESE
Cosmos 407 Rocket 3.9 01:49:14 10° N 01:54:25 49° ENE 01:58:29 16° SE
Resurs 01 Rocket 1.6 01:51:58 11° SSE 01:56:13 77° ENE 02:00:40 10° N
MOS 1 Rocket 4.2 01:52:20 10° N 01:56:38 47° WNW 02:00:46 10° SW
STARLINK-1210 3.5 01:52:48 10° SW 01:56:55 69° SE 02:01:02 10° NE
STARLINK-1135 3.6 01:54:26 10° NW 01:58:35 78° NE 02:01:31 19° ESE
SPOT 3 Rocket 3.9 01:54:43 10° S 01:59:48 64° WSW 02:04:56 10° NNW
NOSS 2-3 (E) 3.5 01:55:52 10° SSW 02:00:00 69° ESE 02:04:45 10° NE
BREEZE-M DEB (TANK) 2.3 01:58:36 10° WNW 02:00:55 63° SSW 02:02:09 25° SE
STARLINK-1219 3.5 01:57:45 10° SW 02:01:53 76° SE 02:06:01 10° NE
STARLINK-1141 3.6 01:59:26 10° NW 02:03:35 85° NE 02:06:19 21° SE
Sich 1 Rocket 4.4 01:59:32 10° N 02:03:49 37° ENE 02:06:30 20° SE
STARLINK-1211 3.5 02:02:42 10° SW 02:06:51 84° SE 02:11:00 10° NE
SPOT 1/Viking Rocket 4.4 02:04:24 18° SE 02:07:41 36° ENE 02:12:22 10° N
COSMOS 2406 3.8 02:02:54 10° NNW 02:08:25 44° ENE 02:12:12 19° ESE
STARLINK-1140 3.6 02:04:23 10° NW 02:08:32 88° SW 02:11:05 23° SE
Meteor 2-4 Rocket 4.1 02:05:03 15° SSE 02:09:10 42° E 02:14:11 10° NNE
ERBS 3.4 02:10:25 24° ESE 02:10:25 24° ESE 02:12:39 10° ENE
Cosmos 1782 Rocket 3.6 02:07:02 10° N 02:11:30 69° E 02:14:39 19° SSE
STARLINK-1245 3.6 02:07:41 10° SW 02:11:50 89° NNW 02:15:59 10° NE
Cosmos 2034 Rocket 4.3 02:06:07 10° NNW 02:12:15 66° W 02:18:19 10° S
H-2A R/B 4.5 02:09:09 10° SW 02:12:23 17° W 02:15:41 10° NW
SPOT 5 4.4 02:10:08 16° ESE 02:12:55 26° ENE 02:17:11 10° N
STARLINK-1156 3.6 02:09:23 10° NW 02:13:31 81° SW 02:15:52 25° SE
Cosmos 1544 3.2 02:11:42 10° N 02:15:18 57° E 02:17:04 26° SSE
Cosmos 1703 Rocket 3.9 02:11:08 10° SSW 02:15:26 64° W 02:19:45 10° N
Cosmos 1743 3.2 02:12:06 10° NNW 02:15:51 58° W 02:19:04 13° S
Cosmos 1624 Rocket 4.0 02:11:02 10° SSW 02:16:19 79° ESE 02:21:40 10° NNE
Cosmos 1190 Rocket 4.1 02:11:26 10° NNW 02:16:37 64° ENE 02:19:54 22° SE
STARLINK-1233 3.7 02:12:39 10° SW 02:16:48 82° NW 02:20:57 10° NE
Cosmos 909 Rocket 4.4 02:09:18 10° NNW 02:17:13 76° ENE 02:21:51 21° SE
SAR-Lupe-2 3.7 02:13:56 10° NNE 02:17:29 54° E 02:19:32 23° S
STARLINK-1148 3.6 02:14:21 10° NW 02:18:29 74° SW 02:20:39 27° SE
NOSS 2-3 (D) 3.6 02:15:46 10° SW 02:19:56 83° NW 02:24:46 10° NNE
Okean 2 Rocket 4.0 02:16:34 10° N 02:20:36 33° ENE 02:22:21 24° ESE
STARLINK-1204 3.8 02:17:39 10° WSW 02:21:48 75° NW 02:25:57 10° NE
STARLINK-1158 3.7 02:19:21 10° NW 02:23:29 67° SW 02:25:26 29° SSE
TELKOM 3 2.6 02:21:49 10° WNW 02:23:56 72° SW 02:23:58 72° SSW
MetOp-B 4.1 02:21:53 19° SSE 02:25:51 90° ENE 02:31:14 10° NNW
STARLINK-1238 3.9 02:22:37 10° WSW 02:26:45 69° NW 02:30:53 10° NE
Cosmos 1140 Rocket 3.5 02:22:35 10° NNW 02:27:48 72° ENE 02:30:46 26° SSE
STARLINK-1162 3.8 02:24:19 10° WNW 02:28:25 60° SW 02:30:12 31° SSE
Cosmos 614 Rocket 4.3 02:25:10 10° NNW 02:30:11 62° WSW 02:33:42 20° S
Cosmos 1371 Rocket 4.3 02:25:05 10° SSW 02:30:19 69° WNW 02:35:33 10° NNE
Landsat 7 3.8 02:27:51 26° SSE 02:30:30 68° ENE 02:35:15 10° N
STARLINK-1201 4.1 02:27:39 10° WSW 02:31:45 63° NW 02:35:52 10° NE
Cosmos 1975 2.9 02:29:09 10° N 02:33:13 75° W 02:35:28 25° S
Aureole 1 Rocket 3.2 02:29:24 10° NNW 02:33:37 88° ENE 02:36:37 26° SSE
STARLINK-1206 4.2 02:32:39 10° WSW 02:36:45 58° NW 02:40:50 10° NE
ISS -1.0 02:34:47 10° NNW 02:36:55 16° NNE 02:39:03 10° NE
STARLINK-1159 4.1 02:34:21 10° WNW 02:38:21 49° SW 02:39:47 33° S
Cosmos 2279 Rocket 4.2 02:33:03 10° N 02:39:10 54° E 02:42:22 28° SE
NOSS 3-1 (A) 4.0 02:34:28 10° SW 02:39:47 55° NW 02:45:58 10° NNE
STARLINK-1205 4.4 02:37:40 10° WSW 02:41:44 53° NNW 02:45:48 10° NE
ERS-1 Rocket 3.2 02:40:27 30° SE 02:42:39 54° ENE 02:47:33 10° N
STARLINK-1171 4.2 02:39:23 10° WNW 02:43:20 44° SW 02:44:35 34° S
Cosmos 1954 Rocket 4.1 02:38:28 10° NNW 02:43:42 64° ENE 02:46:03 33° SE
STARLINK-1080 4.4 02:41:38 10° NW 02:45:38 46° NNE 02:47:27 27° E
Cosmos 2082 Rocket 3.2 02:42:02 10° N 02:47:16 35° ENE 02:49:50 24° ESE
SeaSat 1 3.7 02:44:08 10° NE 02:47:36 23° E 02:47:36 23° E
STARLINK-1155 4.4 02:44:24 10° WNW 02:48:17 40° SW 02:49:22 33° S
Spot 2 Rocket 3.7 02:45:52 25° S 02:48:50 68° WSW 02:53:53 10° NNW
Cosmos 332 Rocket 4.4 02:48:36 34° SE 02:49:27 37° ESE 02:53:57 10° NE
EXPRESS MD2 3.9 02:51:01 39° ESE 02:51:01 39° ESE 02:55:47 10° ENE
STARLINK-1090 4.2 02:46:34 10° NW 02:50:37 49° NNE 02:52:13 31° E
STARLINK-1166 4.5 02:49:25 10° WNW 02:53:13 36° SW 02:54:08 32° SSW
Cosmos 1634 Rocket 4.2 02:47:52 10° NNW 02:54:10 71° W 02:58:25 22° S
STARLINK-1089 4.1 02:51:32 10° NW 02:55:37 53° NE 02:57:00 35° E
Cosmos 1833 Rocket 2.8 02:50:04 10° NNW 02:55:40 65° ENE 02:57:57 36° SE
Cosmos 676 Rocket 3.9 02:51:21 10° NNW 02:56:37 86° ENE 02:58:44 37° SSE
CARTOSAT-1 3.5 02:56:41 45° SE 02:57:52 69° ENE 03:02:11 10° N
Cosmos 1437 Rocket 3.0 02:58:27 45° E 02:58:27 45° E 03:02:02 10° NNE
STARLINK-1246 4.2 03:00:01 39° E 03:00:01 39° E 03:03:00 10° ENE
STARLINK-1107 4.0 02:56:30 10° NW 03:00:36 58° NE 03:01:46 41° E
STARLINK-1224 4.0 03:04:47 45° E 03:04:47 45° E 03:08:00 10° ENE
STARLINK-1066 3.8 03:01:29 10° NW 03:05:36 63° NE 03:06:34 47° E
STARLINK-1225 3.8 03:09:33 53° E 03:09:33 53° E 03:13:01 10° ENE
STARLINK-1081 3.7 03:06:27 10° NW 03:10:35 69° NE 03:11:21 54° E
Cosmos 1943 Rocket 4.0 03:12:02 14° E 03:12:02 14° E 03:13:56 10° ENE
IGS 5A 4.5 03:10:01 28° SW 03:11:34 40° W 03:15:31 10° NNW
STARLINK-1230 3.6 03:14:19 61° E 03:14:19 61° E 03:18:01 10° NE
BREEZE-M DEB (TANK) 4.4 02:50:34 10° SW 03:14:30 89° SSE 03:19:31 10° ENE
Terra 1.8 03:14:02 50° SE 03:15:07 68° ENE 03:19:52 10° N
STARLINK-1070 3.6 03:11:24 10° NW 03:15:33 75° NE 03:16:07 62° E
Cosmos 2180 Rocket 4.5 03:09:42 10° N 03:16:08 84° E 03:18:45 38° SSE
Cosmos 2278 Rocket 2.9 03:12:44 10° SW 03:18:16 54° WNW 03:23:52 10° NNE
STARLINK-1243 3.5 03:19:05 71° ESE 03:19:05 71° ESE 03:23:00 10° NE
Lacrosse 5 2.7 03:14:44 10° NW 03:19:33 42° NE 03:21:33 29° E
STARLINK-1069 3.5 03:16:22 10° NW 03:20:31 82° NE 03:20:53 72° ESE
Cosmos 1300 Rocket 3.9 03:17:10 10° NNW 03:21:33 59° W 03:22:41 43° SSW
STARLINK-1236 3.4 03:23:50 81° SE 03:23:50 81° SE 03:27:59 10° NE
STARLINK-1085 3.4 03:21:22 10° NW 03:25:32 89° NE 03:25:42 83° ESE
Thor Agena Rocket 4.2 03:24:57 10° NNE 03:29:50 37° E 03:29:52 37° E
Cosmos 1452 Rocket 3.8 03:26:55 26° SW 03:29:52 67° WNW 03:35:09 10° NNE
Cosmos 1461 4.1 03:32:01 30° ENE 03:32:01 30° ENE 03:34:32 10° NE
STARLINK-1086 3.5 03:26:21 10° NW 03:30:28 83° SW 03:30:28 83° SW
STARLINK-1269 3.5 03:33:22 72° WSW 03:33:46 85° NW 03:37:56 10° NE
Cosmos 1674 Rocket 3.7 03:33:06 56° SW 03:33:51 70° W 03:38:13 10° N
STARLINK-1095 3.6 03:31:19 10° NW 03:35:15 73° WSW 03:35:15 73° WSW
Cosmos 371 Rocket 3.9 03:34:23 27° SW 03:36:50 55° WNW 03:41:37 10° N
STARLINK-1200 3.6 03:38:09 62° WSW 03:38:46 78° NW 03:42:55 10° NE
STARLINK-1077 3.8 03:36:18 10° NW 03:40:01 63° W 03:40:01 63° W
Cosmos 1378 Rocket 3.5 03:40:42 70° SW 03:41:07 78° W 03:45:33 10° N
STARLINK-1192 3.8 03:42:55 53° W 03:43:45 71° NW 03:47:54 10° NE
STARLINK-1075 4.0 03:41:18 10° WNW 03:44:48 55° W 03:44:48 55° W
ERBS 4.3 03:43:11 10° W 03:46:05 28° NW 03:49:01 10° NNE
STARLINK-1244 3.9 03:47:40 46° W 03:48:43 65° NW 03:52:51 10° NE
STARLINK-1093 4.3 03:46:18 10° WNW 03:49:36 47° W 03:49:36 47° W
SPOT 5 3.9 03:49:22 34° SW 03:50:42 40° W 03:55:38 10° NNW
Cosmos 1975 Rocket 3.8 03:52:17 41° ENE 03:52:17 41° ENE 03:55:50 10° NNE
Meteor 1-23 Rocket 4.4 03:49:57 42° SSW 03:51:52 70° W 03:57:34 10° N
JB-3 4.5 03:48:42 10° N 03:52:40 78° NNW 03:52:40 78° NNW
STARLINK-1138 4.1 03:52:27 40° W 03:53:42 60° NW 03:57:49 10° NE
STARLINK-1074 4.5 03:51:18 10° WNW 03:54:22 41° W 03:54:22 41° W
STARLINK-1203 4.2 03:54:42 27° WSW 03:56:46 56° NW 04:00:55 10° NE
SL-4 R/B 3.5 03:54:21 10° NW 03:55:53 25° NW 03:55:53 25° NW
Aureole 2 Rocket 4.3 03:59:23 25° N 03:59:23 25° N 04:00:51 10° NNE
STARLINK-1143 4.2 03:57:14 35° W 03:58:42 55° NW 04:02:47 10° NE
Cosmos 2026 Rocket 4.1 03:59:29 53° SE 04:00:25 59° E 04:06:36 10° NNE
STARLINK-1124 4.4 03:58:35 10° NW 04:02:35 44° NNE 04:02:42 44° NE
STARLINK-1241 4.4 04:01:57 30° W 04:03:41 51° NNW 04:07:44 10° NE
Cosmos 1741 Rocket 4.1 04:00:20 10° NNW 04:05:30 62° WSW 04:05:54 60° SW
STARLINK-1122 4.4 04:03:33 10° NW 04:07:29 48° NNE 04:07:29 48° NNE
Meteor 1-22 Rocket 4.2 04:03:56 10° N 04:09:56 73° E 04:10:40 64° SE
BREEZE-M DEB (TANK) 3.2 03:59:59 10° NW 04:10:07 88° NNE 04:10:59 63° ESE
USA 215 3.6 04:07:45 32° ESE 04:10:48 62° NE 04:17:15 10° NW
STARLINK-1126 4.3 04:08:27 10° NW 04:12:12 50° NNE 04:12:12 50° NNE
ISS -1.8 04:11:03 10° NW 04:13:01 29° NNW 04:13:01 29° NNW
Cosmos 2297 3.9 04:12:54 44° SW 04:14:35 66° WNW 04:20:17 10° NNE
EO 1 Del DPAF 4.1 04:10:55 10° N 04:13:39 46° N 04:13:39 46° N
Cosmos 1805 4.0 04:11:28 10° NNW 04:14:31 50° NNW 04:14:31 50° NNW
Okean 1 Rocket 3.9 04:11:25 10° NNW 04:15:37 42° W 04:15:37 42° W
BREEZE-M DEB 4.0 04:15:51 28° WNW 04:17:15 47° NNW 04:24:34 10° ENE
Okean 2 3.9 04:18:11 57° N 04:18:11 57° N 04:21:32 10° N
STARLINK-1082 4.3 04:13:28 10° NW 04:17:03 52° N 04:17:03 52° N
Cosmos 1378 4.5 04:20:54 37° NW 04:20:54 37° NW 04:23:44 10° N
STARLINK-1100 4.4 04:18:26 10° NW 04:21:49 51° N 04:21:49 51° N
Cosmos 1110 Rocket 4.5 04:24:15 48° WSW 04:25:13 55° WNW 04:30:19 10° N
Cosmos 1842 4.3 04:26:31 44° N 04:26:31 44° N 04:29:16 10° N
SeaSat 1 3.3 04:21:01 10° NNE 04:25:43 45° WNW 04:27:22 33° WSW
STARLINK-1083 4.5 04:23:24 10° NW 04:26:36 49° NNW 04:26:36 49° NNW
Cosmos 1455 Rocket 3.5 04:24:01 10° N 04:27:35 55° NNE 04:27:35 55° NNE
Cosmos 2082 Rocket 3.2 04:26:12 10° NW 04:31:17 34° WSW 04:31:41 33° WSW
Cosmos 1025 Rocket 4.3 04:36:11 33° NE 04:36:11 33° NE 04:38:58 10° NNE
CENTAUR R/B 4.1 04:34:58 10° NNW 04:42:30 41° NE 04:48:59 16° ESE
Cosmos 2369 Rocket 2.2 04:44:14 69° E 04:44:14 69° E 04:49:41 10° NNE
Cosmos 1486 Rocket 4.5 04:42:23 10° N 04:47:34 51° ENE 04:47:46 51° ENE
ALOS 2 3.1 04:48:55 56° NNE 04:48:55 56° NNE 04:52:30 10° N
Meteor 1-21 4.1 04:50:29 75° WSW 04:50:47 78° W 04:56:27 10° N
BREEZE-M DEB (TANK) 4.4 04:49:20 33° W 04:51:29 71° NNW 05:06:08 10° ENE
Cosmos 1302 Rocket 4.1 04:53:01 67° W 04:53:10 68° WNW 04:58:28 10° NNE
Terra 4.2 04:52:55 12° W 04:53:19 12° W 04:55:15 10° WNW
Cosmos 1943 Rocket 2.2 04:53:31 67° W 04:53:55 70° WNW 04:59:30 10° NNE
SL-27 R/B 4.5 04:51:51 10° N 04:53:48 28° N 04:53:48 28° N
Cosmos 1726 4.2 04:52:29 10° NNE 04:54:23 22° NE 04:54:23 22° NE
Cosmos 292 Rocket 4.1 04:59:04 61° NE 04:59:04 61° NE 05:03:07 10° NNE
Cosmos 1417 Rocket 4.3 04:52:31 10° N 04:58:51 85° E 04:59:31 73° SSE
ATLAS 2AS CENTAUR R/B 3.2 04:58:04 50° SE 04:58:52 52° ESE 05:06:33 10° NE
Nimbus 7 Rocket 4.4 04:53:10 10° N 04:59:15 75° WNW 05:00:05 65° SW
Lacrosse 5 3.3 04:57:52 10° WNW 05:00:44 27° W 05:00:44 27° W
Cosmos 1544 Rocket 4.4 04:59:52 10° NNW 05:03:06 47° NW 05:03:06 47° NW
Cosmos 1271 Rocket 4.2 05:07:03 35° N 05:07:03 35° N 05:09:25 10° N
Cosmos 1953 3.7 05:03:51 10° N 05:06:29 35° NNE 05:06:29 35° NNE
Cosmos 1340 Rocket 4.4 05:05:11 10° N 05:07:53 30° NE 05:07:53 30° NE
NOSS 3-2 (A) 4.0 05:01:51 10° NNW 05:09:32 82° NE 05:12:15 48° SE
Cosmos 1707 4.2 05:14:32 37° N 05:14:32 37° N 05:17:02 10° N
USA 238 DEB 3.8 05:09:38 10° NW 05:16:56 89° ENE 05:18:33 59° SE
USA 238 3.8 05:09:43 10° NW 05:17:01 88° ENE 05:18:41 59° SE
Cosmos 2263 4.1 05:18:10 87° NW 05:18:10 87° NW 05:23:47 10° NNE
COSMOS 2455 3.6 05:21:01 40° E 05:21:01 40° E 05:26:03 10° NE
Cosmos 1655 Rocket 3.9 05:22:16 68° SW 05:22:53 73° W 05:29:09 10° N
Cosmos 1992 Rocket 4.0 05:25:36 76° NNE 05:25:36 76° NNE 05:30:26 10° NNE
Meteor 2-8 Rocket 4.3 05:19:54 10° N 05:26:02 75° W 05:26:24 73° SW
S3M 3.8 05:20:07 10° N 05:26:15 74° W 05:26:39 71° SW
SL-4 R/B 3.7 05:35:51 31° ENE 05:35:51 31° ENE 05:38:29 10° ENE
Cosmos 1833 4.2 05:29:34 10° NNW 05:35:12 69° ENE 05:35:35 66° E
Cosmos 1674 4.4 05:37:47 30° NNE 05:37:47 30° NNE 05:39:52 10° NNE
Cosmos 1656 Rocket 3.6 05:37:54 86° WNW 05:37:55 86° WNW 05:43:34 10° NNE
In-Cosmos 22 4.0 05:40:22 77° NW 05:40:22 77° NW 05:45:30 10° N
CZ-4 R/B 4.1 05:38:47 10° NNE 05:42:58 63° NE 05:42:58 63° NE
ATLAS CENTAUR R/B 2.9 05:45:25 31° ENE 05:45:25 31° ENE 05:47:50 10° NE
PSLV R/B 4.2 05:43:29 10° NNE 05:47:14 56° NE 05:47:14 56° NE
Meteor 1-16 Rocket 4.1 05:45:47 10° NNW 05:51:13 74° W 05:51:13 74° W
USA 215 3.9 05:55:03 36° WSW 05:55:03 36° WSW 06:00:02 10° WNW
Cosmos 1892 Rocket 4.1 06:06:20 56° NE 06:06:20 56° NE 06:09:59 10° NNE
RESURS DK-1 3.9 06:06:55 29° ENE 06:06:55 29° ENE 06:09:27 10° NE
Cosmos 1503 Rocket 4.4 06:01:34 10° NNW 06:06:08 53° WNW 06:06:08 53° WNW
SL-19 R/B 4.4 06:03:39 10° NNE 06:09:01 57° ESE 06:09:22 56° ESE
NOSS 3-2 (C) 4.1 06:06:56 10° NW 06:14:37 66° WSW 06:16:38 52° S
SL-16 R/B 3.9 06:11:17 18° ESE 06:15:02 34° ENE 06:20:28 10° N
Cosmos 1867 3.5 06:12:30 10° NNW 06:18:00 80° ENE 06:18:33 70° ESE
Cosmos 1726 Rocket 4.0 06:14:34 10° N 06:18:00 55° NNW 06:18:00 55° NNW
Helios 1B rocket 3.4 06:14:57 10° N 06:18:08 41° NW 06:18:08 41° NW
NOSS 3-4 (A) 3.8 06:19:43 43° W 06:21:15 54° NW 06:27:24 10° NNE
NOSS 3-4 (C) 3.8 06:19:50 44° W 06:21:20 54° NW 06:27:31 10° NNE
Cosmos 1244 Rocket 4.3 06:21:54 67° SSW 06:22:50 86° W 06:29:05 10° N
Meteor 2-21 Rocket 4.4 06:24:08 63° SSE 06:25:08 78° E 06:31:19 10° N
Cosmos 1745 Rocket 4.4 06:26:44 43° SE 06:28:13 53° E 06:34:10 10° NNE
Cosmos 2369 Rocket 4.2 06:26:00 14° W 06:28:36 19° NW 06:32:35 10° N
Meteor 1-24 Rocket 3.4 06:28:36 81° S 06:28:52 90° W 06:34:15 10° N
ATLAS 3B R/B 2.8 06:23:01 10° NNW 06:29:51 74° NE 06:34:06 26° SE
CZ-2D R/B 3.0 06:28:30 10° NNE 06:33:22 37° E 06:34:13 35° ESE
CENTAUR R/B 3.3 06:25:33 10° NW 06:33:40 60° WSW 06:36:06 46° SSW
ADEOS II 4.3 06:31:43 10° ENE 06:34:36 15° E 06:36:56 11° ESE
Meteor 2-14 Rocket 4.4 06:36:09 61° SW 06:37:07 72° W 06:43:14 10° N
SL-14 R/B 4.0 06:40:24 48° NNW 06:40:24 48° NNW 06:43:20 10° N
Cosmos 2084 4.0 06:41:53 52° E 06:41:53 52° E 06:45:44 10° NE
Resurs 1-4 Rocket 2.7 06:37:21 10° NNE 06:42:28 47° E 06:43:26 42° SE
Meteor 2-5 Rocket 4.0 06:42:41 48° W 06:43:13 50° WNW 06:48:38 10° N
Cosmos 2058 Rocket 3.3 06:38:58 10° NNW 06:42:48 60° NW 06:42:48 60° NW
Cosmos 2228 4.4 06:40:11 10° NNW 06:42:50 27° WNW 06:42:50 27° WNW
Cosmos 1300 3.4 06:41:55 10° N 06:44:48 50° N 06:44:48 50° N
SJ 16-02 3.8 06:42:48 10° NNE 06:46:03 20° ENE 06:49:18 10° ESE
ATLAS 2AS CENTAUR R/B 3.9 06:45:27 23° WSW 06:50:04 43° NW 06:57:35 10° NNE
Cosmos 921 Rocket 3.0 06:50:43 72° NNW 06:50:43 72° NNW 06:54:40 10° NNE
NPP 4.2 06:45:56 10° NNE 06:51:09 49° E 06:52:26 40° SE
Okean 1-7 Rocket 4.2 06:51:48 44° WNW 06:51:48 44° WNW 06:55:48 10° N
Cosmos 1626 3.4 06:52:42 35° NW 06:52:42 35° NW 06:55:17 10° N
GEOS 3 Rocket 3.5 06:51:55 65° SW 06:52:01 65° WSW 06:57:16 10° NW
Cosmos 1626 Rocket 3.4 06:58:02 86° ENE 06:58:02 86° ENE 07:02:20 10° N
SL-08 ROCKET BODY 4.2 07:03:10 54° SSW 07:04:36 82° W 07:10:29 10° N
Meteor 2-10 Rocket 4.5 07:01:17 10° N 07:06:20 43° ENE 07:09:19 22° SE
COSMOS 2455 3.9 07:04:08 26° W 07:06:27 35° NW 07:11:56 10° NNE
CZ-4C R/B 3.3 07:06:15 23° SE 07:07:23 25° ESE 07:11:47 10° ENE
STARLINK-1377 4.4 07:09:54 36° E 07:09:54 36° E 07:12:17 10° ENE
STARLINK-1353 4.4 07:11:10 36° E 07:11:10 36° E 07:13:29 10° ENE
STARLINK-1375 4.2 07:13:00 39° E 07:13:00 39° E 07:15:27 10° ENE
Cosmos 220 Rocket 4.1 07:12:55 59° W 07:13:07 60° WNW 07:17:30 10° NNE
SL-4 R/B 3.6 07:11:24 24° WNW 07:13:42 38° NNW 07:18:07 10° NE
STARLINK-29 4.5 07:14:15 32° NNW 07:14:15 32° NNW 07:16:56 10° NE
STARLINK-1350 4.1 07:15:18 41° E 07:15:18 41° E 07:17:49 10° ENE
FALCON 9 DEB 3.8 07:15:12 51° N 07:15:12 51° N 07:18:13 10° NE
STARLINK-1352 3.9 07:18:14 49° E 07:18:14 49° E 07:21:01 10° ENE
Cosmos 1386 Rocket 4.4 07:16:10 46° SW 07:17:54 68° W 07:24:02 10° N
UNK 3.6 07:17:21 61° S 07:18:08 83° WSW 07:22:46 10° NNW
Cosmos 1709 Rocket 4.0 07:15:47 37° S 07:18:17 73° E 07:24:23 10° NNE
Cosmos 192 4.3 07:17:32 57° S 07:18:32 81° ESE 07:23:30 10° NNE
MOZ.5/SAFIR/RUBIN 5/SL-8 3.7 07:18:53 58° WSW 07:19:08 59° W 07:23:43 10° NNW
STARLINK-1368 3.7 07:20:21 53° E 07:20:21 53° E 07:23:14 10° NE
STARLINK-1369 3.7 07:21:39 53° E 07:21:39 53° E 07:24:28 10° NE
Cosmos 1812 Rocket 3.5 07:17:37 10° N 07:22:07 87° E 07:22:59 58° SSE
Cosmos 1980 Rocket 4.2 07:19:01 11° SE 07:22:31 19° E 07:26:17 10° ENE
ATLAS CENTAUR R/B 3.3 07:21:34 18° WNW 07:22:50 21° NW 07:26:01 10° N
Cosmos 2219 3.3 07:17:35 10° NNW 07:23:16 72° ENE 07:27:40 17° SSE
STARLINK-1372 3.6 07:23:50 58° E 07:23:50 58° E 07:26:46 10° NE
STARLINK-1378 3.3 07:26:48 68° E 07:26:48 68° E 07:29:59 10° NE
STARLINK-1329 3.3 07:27:25 70° E 07:27:25 70° E 07:30:38 10° NE
STARLINK-1365 3.3 07:27:36 70° ENE 07:27:36 70° ENE 07:30:46 10° NE
AQUA 3.7 07:22:49 10° NNE 07:27:36 85° ESE 07:28:51 50° S
Cosmos 1455 2.7 07:24:21 10° N 07:28:01 53° E 07:28:55 41° SE
STARLINK-1362 3.3 07:28:49 72° ENE 07:28:49 72° ENE 07:32:03 10° NE
SL-19 R/B 4.4 07:26:07 37° S 07:28:36 71° WSW 07:35:01 10° NNW
STARLINK-1379 3.2 07:28:58 73° E 07:28:58 73° E 07:32:14 10° NE
Cosmos 1602 Rocket 3.7 07:30:32 50° W 07:30:54 52° W 07:35:09 10° N
Cosmos 1825 Rocket 4.0 07:29:44 39° SSE 07:31:02 55° E 07:35:15 10° NNE
STARLINK-1373 3.1 07:31:53 82° ENE 07:31:53 82° ENE 07:35:19 10° NE
STARLINK-1390 3.1 07:33:23 83° NE 07:33:23 83° NE 07:36:47 10° NE
CZ-4B R/B 3.5 07:28:07 10° NNE 07:33:17 80° WNW 07:35:02 43° SSW
FALCON 9 R/B 4.0 07:32:38 23° WSW 07:37:47 63° S 08:05:13 10° ESE
Cosmos 2297 Rocket 2.3 07:32:47 10° NNW 07:38:28 77° ENE 07:44:06 10° SSE
Cosmos 990 Rocket 4.4 07:33:50 10° NNW 07:39:04 61° ENE 07:44:13 10° SSE
CBERS-1 4.0 07:36:17 10° NNE 07:41:26 81° ESE 07:43:36 36° S
Nadezhda 1 Rocket 4.4 07:36:27 10° NNW 07:42:15 44° W 07:44:15 34° SW
RESURS DK-1 4.2 07:42:47 19° WNW 07:43:47 20° NW 07:46:54 10° N
GP-B 3.0 07:39:54 10° N 07:44:22 89° E 07:45:56 41° S
Cosmos-2242 3.3 07:41:13 10° N 07:45:28 64° E 07:47:46 26° SSE
Cosmos 841 Rocket 4.4 07:44:45 22° SSE 07:47:44 43° ESE 07:52:40 10° NNE
STARLINK-1212 3.0 07:45:05 10° NW 07:48:11 71° NE 07:51:16 10° ESE
STARLINK-1105 3.0 07:45:34 10° NW 07:48:39 71° NE 07:51:43 10° ESE
STARLINK-1228 4.1 07:45:30 10° NW 07:53:47 - SE 07:47:32 34° WNW
Cosmos 1703 3.2 07:48:14 48° S 07:49:17 85° E 07:53:15 10° N
STARLINK-1247 3.0 07:46:28 10° NW 07:49:35 73° NE 07:52:41 10° ESE
STARLINK-1227 2.9 07:46:55 10° NW 07:50:01 74° NE 07:53:06 10° ESE
STARLINK-1226 2.9 07:47:46 10° NW 07:50:53 75° NE 07:54:00 10° SE
STARLINK-1215 2.9 07:48:43 10° NW 07:51:50 77° NE 07:54:57 10° SE
STARLINK-1217 2.8 07:50:29 10° NW 07:53:36 81° NE 07:56:43 10° SE
BREEZE-M R/B 3.8 07:51:52 20° W 07:54:17 36° NNW 07:57:01 10° NE
STARLINK-1229 2.8 07:51:24 10° NW 07:54:32 82° NE 07:57:38 10° SE
IRS-1D 3.5 07:49:20 10° N 07:54:41 78° WNW 07:57:11 32° SSW
STARLINK-1270 2.8 07:52:16 10° NW 07:55:24 84° NE 07:58:31 10° SE
SL-08 R/B 3.9 07:51:17 10° SSE 07:55:53 57° ENE 08:00:28 10° N
STARLINK-1189 2.7 07:54:06 10° NW 07:57:13 88° NNE 08:00:20 10° SE
STARLINK-1188 2.7 07:54:59 10° NW 07:58:08 89° E 08:01:14 10° SE
SL-16 R/B 3.0 07:56:22 30° SW 07:58:31 39° W 08:04:15 10° NNW
STARLINK-1187 2.6 07:56:06 10° NW 07:59:11 76° SW 08:02:17 10° SE
Cosmos 2074 Rocket 4.5 07:54:33 15° SSE 07:59:43 60° E 08:05:55 10° NNE
ATLAS CENTAUR R/B 2.4 07:57:04 10° NW 08:00:22 85° NE 08:08:33 10° SE
STARLINK-1191 2.7 07:57:28 10° NW 08:00:34 85° SW 08:03:40 10° SE
STARLINK-1221 2.7 07:58:19 10° NW 08:01:25 84° SW 08:04:31 10° SE
STARLINK-1222 2.6 07:59:14 10° NW 08:02:20 82° SW 08:05:26 10° SE
STARLINK-1214 2.6 08:00:08 10° NW 08:03:14 80° SW 08:06:18 10° SE
Cosmos 1763 Rocket 3.5 08:03:51 32° SW 08:06:13 67° WNW 08:11:19 10° NNE
STARLINK-1208 4.5 08:04:23 10° NW 08:08:27 51° NNE 08:12:28 10° ESE
USA 234 4.2 08:02:39 10° ENE 08:08:37 37° SE 08:13:10 16° S
Cosmos 1758 Rocket 4.1 08:08:01 32° WSW 08:09:22 42° WNW 08:13:32 10° N
H-2A R/B 3.4 08:07:14 10° SE 08:11:14 40° ENE 08:15:21 10° N
Cosmos 2184 Rocket 4.2 08:06:16 15° S 08:11:29 71° E 08:17:37 10° NNE
IRS-P3 4.1 08:07:19 10° N 08:12:39 76° WNW 08:15:56 24° SSW
CZ-2D R/B 3.3 08:08:52 10° N 08:13:14 27° WNW 08:15:33 20° WSW
STARLINK-1271 4.3 08:09:22 10° NW 08:13:27 56° NE 08:17:31 10° ESE
Cosmos 1697 Rocket 2.7 08:10:09 26° SSW 08:13:27 84° WNW 08:19:10 10° NNE
BREEZE-M DEB (TANK) 2.7 08:11:41 10° NW 08:13:54 35° NNE 08:15:58 10° E
Cosmos 2227 Rocket 2.2 08:08:27 10° NNW 08:14:05 64° WSW 08:19:39 10° S
ADEOS II 2.1 08:09:31 10° N 08:14:45 67° WNW 08:17:53 24° SSW
NOSS 7 (E) 4.5 08:14:03 36° SW 08:15:22 69° NW 08:18:32 10° NNE
STARLINK-1154 4.2 08:14:20 10° NW 08:18:27 61° NE 08:22:32 10° ESE
Lacrosse 4 Rocket 2.9 08:14:23 10° NNW 08:18:28 40° ENE 08:22:26 10° SE
ATLAS 3B R/B 3.8 08:14:54 10° WNW 08:19:55 22° WSW 08:21:15 21° SW
Resurs 1-4 Rocket 3.6 08:17:55 10° NNW 08:21:57 23° WNW 08:24:31 16° W
STARLINK-1197 4.0 08:19:18 10° NW 08:23:26 66° NE 08:27:32 10° ESE
Cosmos 2181 Rocket 4.2 08:18:07 10° NNW 08:24:21 55° W 08:29:37 15° SSW
ARIANE 5 R/B 2.4 08:19:26 10° NNE 08:24:32 87° WNW 08:28:16 18° SSW
SJ 16-02 1.9 08:20:40 10° NW 08:24:47 38° WSW 08:26:56 23° SSW
Cosmos 1953 Rocket 3.8 08:23:20 25° SSW 08:25:41 53° W 08:30:04 10° N
STARLINK-1198 3.9 08:24:14 10° NW 08:28:23 72° NE 08:32:30 10° ESE
Spot 4 Rocket 4.1 08:25:43 10° NNE 08:30:53 78° ESE 08:35:30 13° S
Iridium 2 3.9 08:28:39 10° N 08:32:24 68° E 08:36:08 10° S
Cosmos 1898 Rocket 3.8 08:27:40 10° NNW 08:32:45 46° WSW 08:37:43 10° S
STARLINK-1199 3.7 08:29:14 10° NW 08:33:24 79° NE 08:37:32 10° SE
Cosmos 1842 Rocket 4.1 08:31:57 10° N 08:36:24 60° E 08:40:48 10° SSE
STARLINK-43 4.1 08:35:34 20° SSW 08:37:40 41° SE 08:41:10 10° ENE
STARLINK-1210 3.6 08:34:12 10° NW 08:38:22 86° NE 08:42:30 10° SE
Cosmos 1570 Rocket 4.3 08:34:45 20° SW 08:38:23 56° WNW 08:43:38 10° N
Meteor 1-27 4.2 08:33:01 10° N 08:38:37 86° E 08:44:11 10° S
IDEFIX/ARIANE 42P 2.9 08:34:34 10° NNE 08:39:51 66° ESE 08:45:03 10° S
ERS-2 2.1 08:37:30 10° S 08:41:05 64° WSW 08:44:45 10° NNW
Cosmos 2208 Rocket 4.1 08:37:50 18° SSW 08:41:39 64° WNW 08:46:55 10° NNE
Cosmos 1937 Rocket 3.7 08:37:31 10° NNW 08:42:36 52° WSW 08:47:41 10° S
STARLINK-1219 3.5 08:39:11 10° NW 08:43:20 87° SW 08:47:28 10° SE
Cosmos 2154 Rocket 4.1 08:37:12 10° S 08:43:29 81° E 08:49:46 10° N
USA 129 2.1 08:43:16 10° NNE 08:44:49 29° E 08:44:57 28° ESE
Cosmos 2369 4.2 08:43:42 17° SW 08:47:50 47° WNW 08:53:18 10° NNE
STARLINK-1211 3.5 08:44:09 10° NW 08:48:18 80° SW 08:52:26 10° SE
Cosmos 2360 4.4 08:46:30 16° SW 08:51:03 60° WNW 08:56:41 10° NNE
IRIDIUM 104 4.4 08:46:47 10° S 08:52:00 88° E 08:57:15 10° N
STARLINK-1245 3.5 08:49:09 10° NW 08:53:17 73° SW 08:57:24 10° SE
Meteor 2-17 Rocket 4.5 08:48:00 10° SSW 08:54:08 74° W 09:00:18 10° N
CZ-4C R/B 2.8 08:51:25 14° WSW 08:55:26 44° NW 09:01:03 10° NNE
Cosmos 1814 Rocket 4.4 08:52:03 15° SW 08:56:26 53° WNW 09:01:41 10° N
Cosmos 2285 Rocket 4.2 08:50:54 10° NNW 08:56:59 49° WSW 09:03:00 10° S
STARLINK-1233 3.5 08:54:08 10° NW 08:58:15 66° SW 09:02:21 10° SE
CZ-2C R/B 4.1 08:55:02 10° NNE 08:59:44 35° E 09:04:26 10° SSE
IRIDIUM 114 4.3 08:55:57 10° S 09:01:10 76° W 09:06:24 10° N
Meteor 1-28 Rocket 3.8 08:58:55 10° SSW 09:02:24 35° W 09:05:55 10° NNW
Cosmos 1076 Rocket 3.9 08:58:54 10° S 09:03:12 66° E 09:07:32 10° NNE
STARLINK-1204 3.6 08:59:08 10° WNW 09:03:14 59° SW 09:07:18 10° SE
Uosat 12 SS-18 rocket 4.2 09:00:08 10° NNW 09:04:27 83° ENE 09:09:07 10° SE
BREEZE-M DEB (TANK) 4.1 09:03:17 10° NNW 09:05:04 18° NNE 09:07:29 10° ENE
Landsat 5 3.6 09:01:15 10° S 09:05:42 69° WSW 09:10:14 10° NNW
Cosmos 1980 Rocket 2.4 09:00:48 12° SW 09:05:57 59° WNW 09:11:32 10° NNE
STARLINK-1238 3.7 09:04:07 10° WNW 09:08:10 54° SW 09:12:12 10° SSE
CZ-2D R/B 4.2 09:06:32 10° N 09:10:20 37° WNW 09:14:13 10° SW
IRIDIUM 103 4.4 09:05:11 10° SSW 09:10:20 62° W 09:15:31 10° N
Cosmos 1892 2.8 09:08:16 10° S 09:12:07 81° E 09:15:56 10° N
STARLINK-1201 3.8 09:09:08 10° WNW 09:13:08 48° SW 09:17:08 10° SSE
CZ-4C R/B 3.5 09:09:51 10° S 09:13:14 41° W 09:16:42 10° NNW
STARLINK-33 4.3 09:11:30 10° SSW 09:14:22 31° SE 09:17:15 10° ENE
Cosmos 540 Rocket 4.4 09:11:42 10° SW 09:16:13 32° WNW 09:20:50 10° N
STARLINK-1206 3.9 09:14:09 10° WNW 09:18:06 44° SW 09:22:02 10° SSE
Cosmos 1869 3.3 09:14:26 10° NNW 09:18:17 61° W 09:22:05 10° S
Cosmos 1400 Rocket 4.1 09:15:42 10° NW 09:19:02 24° W 09:22:22 10° SW
Nadezhda 3 Rocket 4.1 09:15:14 10° NNW 09:21:23 59° W 09:27:33 10° S
Cosmos 2297 Rocket 3.8 09:18:58 10° WNW 09:21:45 14° W 09:24:31 10° SW
STARLINK-66 3.9 09:19:50 10° SSW 09:22:50 39° SE 09:25:52 10° ENE
STARLINK-1205 4.0 09:19:10 10° WNW 09:23:03 40° SW 09:26:56 10° SSE
Cosmos 2221 2.8 09:20:46 10° NNW 09:24:55 46° W 09:29:04 10° SSW
PSLV R/B 3.6 09:21:21 10° NNE 09:25:35 86° E 09:29:46 10° SSW
STARLINK-1218 4.2 09:24:11 10° WNW 09:27:59 36° SW 09:31:47 10° SSE
Cosmos 2341 Rocket 4.1 09:23:35 10° S 09:29:59 80° W 09:36:23 10° N
Cosmos 372 Rocket 4.4 09:27:11 10° NNW 09:31:58 41° WSW 09:36:47 10° S
